www.pogodaiklimat.ru

АРХИВ ПОГОДЫ в Провиденсе

Время (UTC), дата Ветер
(напр.,м/с)
 
Видим.   Явления Облачность Т
(С)
Тd
(С)
f
(%)
Тe
(С)
Тes
(С)
Комфортность

P
(гПа)

Po
(гПа)
Тmin
(С)
Tmax
(С)
R
(мм)
SD
(см)
11:51 25.05 З  16 км    2/0 7500 м
[верхняя] 
+17.2  +10.0  63  +17  +20    1023.1  1021.1         
12:51 25.05 З  16 км    2/0 7500 м
[верхняя] 
+19.4  +6.7  44  +20  +26    1022.8  1020.8         
13:51 25.05 З  16 км    2/2 900 м
[верхняя] 
+20.6  +6.1  39  +22  +28  комфорт  1023.1  1021.1         
14:51 25.05 нст  16 км    5/2 1500 м
[верхняя] 
+21.7  +6.1  36  +22  +31  комфорт  1023.0  1021.1         
15:51 25.05 нст  16 км    5/2 1800 м
[верхняя] 
+22.2  +6.7  37  +23  +33  комфорт  1022.2  1020.4         
16:51 25.05 Ю  16 км    5/2 1800 м
[верхняя] 
+21.7  +7.8  41  +23  +24  комфорт  1021.8  1019.7  +15.0  +22.8     
17:51 25.05 Ю  9
{11} 
16 км    5/2 1800 м
[верхняя] 
+21.7  +6.7  38  +22  +23  комфорт  1021.1  1019.1         
18:32 25.05 ЮЗ  7
{10} 
16 км    8/0 5400 м
[средняя верхняя] 
+22.8  +6.1  34  +23  +26  комфорт    1018.7         
18:51 25.05 ЮЗ  6
{9} 
16 км    8/0 5400 м
[средняя верхняя] 
+21.7  +5.0  34  +22  +25  комфорт  1020.4  1018.4         
19:51 25.05 Ю  8
{12} 
16 км    8/0 3600 м
[средняя верхняя] 
+21.7  +6.7  38  +22  +23  комфорт  1020.2  1018.4         
20:51 25.05 ЮЗ  16 км    8/0 3600 м
[средняя] 
+20.6  +7.2  42  +21  +22  комфорт  1019.6  1017.7         
21:51 25.05 ЮЗ  7
{10} 
16 км    8/0 3600 м
[средняя верхняя] 
+18.9  +6.1  43  +19  +19    1019.7  1017.7         
22:51 25.05 ЮЗ  16 км    8/0 3600 м
[средняя верхняя] 
+17.2  +4.4  43  +16  +16    1019.8  1017.7  +17.2  +23.3     
23:51 25.05 ЮЗ  16 км    8/0 2850 м
[средняя верхняя] 
+15.6  +3.9  46  +14  +14    1019.6  1017.7         
00:51 26.05 ЮЗ  16 км    10/0 2400 м
[средняя верхняя] 
+15.0  +2.8  44  +13  +13    1019.3  1017.4         
01:51 26.05 ЮЗ  16 км    10/0 3300 м
[средняя верхняя] 
+14.4  +5.0  53  +12  +12    1018.6  1016.7         
02:51 26.05 ЮЗ  16 км    10/10 1500 м  +14.4  +6.7  60  +12  +12    1018.5  1016.7         
03:51 26.05 ЮЗ  16 км  слабый дождь  10/10 1470 м  +13.9  +8.9  72  +12  +12    1017.3  1015.3         
04:51 26.05 Ю  4
{9} 
16 км    10/10 780 м  +14.4  +9.4  72  +13  +13    1015.9  1014.0  +13.9  +16.7     
05:22 26.05 ЮЗ  16 км    10/10 780 м  +14.4  +10.0  75  +12  +12      1014.0         
05:51 26.05 ЮЗ  16 км    10/10 780 м  +14.4  +10.6  78  +12  +12    1015.4  1013.7         
06:30 26.05 ЮЗ  4
{8} 
16 км    8/8 750 м  +14.4  +11.1  81  +13  +13      1012.6         
06:51 26.05 ЮЗ  16 км    10/10 690 м  +15.0  +11.1  77  +14  +14    1014.1  1012.3         
07:51 26.05 ЮЗ  16 км    10/10 540 м  +15.0  +12.2  83  +13  +13    1013.8  1012.0         
08:14 26.05 ЮЗ  16 км    10/10 420 м  +15.0  +12.2  83  +14  +14      1012.0         
08:51 26.05 ЮЗ  16 км    10/10 390 м  +15.6  +12.8  83  +14  +14    1013.7  1011.6         
09:51 26.05 ЮЗ  16 км    10/10 330 м  +16.1  +13.9  87  +15  +15    1013.4  1011.6         
10:51 26.05 З  16 км    10/10 360 м  +16.7  +14.4  86  +16  +16    1013.2  1011.3  +14.4  +17.2     
11:35 26.05 ЮЗ  16 км    5/5 450 м
[верхняя] 
+18.9  +14.4  75  +19  +20      1009.9         
11:51 26.05 З  16 км    5/5 450 м
[верхняя] 
+19.4  +15.0  76  +21  +22  комфорт  1012.6  1010.6         
12:51 26.05 З  16 км    5/2 900 м
[верхняя] 
+22.8  +15.6  64  +27  +29  душно  1012.4  1010.6         
13:51 26.05 СЗ  4
{9} 
16 км    5/2 900 м
[верхняя] 
+25.0  +16.1  58  +28  +34  жарко  1012.1  1010.3         
14:51 26.05 З  16 км    2/2 1200 м  +27.2  +16.1  51  +31  +38  душно  1011.6  1009.9         
15:51 26.05 СЗ  16 км    2/2 1200 м
[верхняя] 
+28.3  +15.6  46  +31  +40  душно  1010.7  1008.9         
16:51 26.05 Ю  7
{9} 
16 км    2/2 1200 м
[верхняя] 
+26.1  +16.7  56  +30  +33  душно  1010.6  1008.9  +16.7  +28.9     
17:51 26.05 ЮВ  16 км    5/5 1500 м
[верхняя] 
+27.2  +16.7  53  +31  +36  душно  1009.7  1007.9         
18:51 26.05 СЗ  16 км    5/2 1500 м
[верхняя] 
+30.6  +12.8  34  +32  +35  жарко  1008.9  1007.2         
19:51 26.05 З  7
{11} 
16 км    8/0 2850 м
[средняя верхняя] 
+30.0  +12.2  33  +31  +32  жарко  1008.6  1006.9         
20:51 26.05 ЮЗ  16 км    8/0 2250 м
[средняя верхняя] 
+28.3  +16.7  49  +32  +33  душно  1008.4  1006.6         
21:51 26.05 З  16 км    8/0 2700 м
[средняя верхняя] 
+27.8  +17.2  52  +32  +33  душно  1008.6  1006.9         
22:51 26.05 ЮЗ  16 км    10/0 2700 м
[средняя верхняя] 
+25.6  +17.2  60  +30  +30  душно  1008.4  1006.6  +25.6  +31.1     
23:51 26.05 ЮЗ  16 км    10/0 2100 м
[средняя верхняя] 
+25.0  +16.1  58  +28  +28  жарко  1008.8  1006.9         
00:51 27.05 З  16 км    10/0 2100 м
[средняя верхняя] 
+24.4  +16.1  60  +28  +28  душно  1009.2  1007.6         
01:51 27.05 З  16 км    10/0 2100 м
[средняя верхняя] 
+23.9  +16.1  62  +27  +27  жарко  1009.4  1007.6         
02:51 27.05 СЗ  16 км    8/0 2100 м
[средняя верхняя] 
+23.3  +14.4  57  +27  +27  душно  1009.4  1007.6         
03:51 27.05 СЗ  16 км    ясно  +23.9  +10.6  43  +25  +25  комфорт  1009.6  1007.9         
04:51 27.05 С  16 км    8/0 2400 м
[средняя] 
+22.2  +11.7  51  +24  +24  комфорт  1009.8  1007.9  +22.2  +25.6     
05:51 27.05 С  16 км    ясно  +21.1  +11.7  55  +23  +23  комфорт  1010.0  1008.2         

 

Местоположение метеостанции Theodore Francis Green State Airport: широта 41.7225 долгота -71.4325 высота над уровнем моря 15 м.

В архиве по умолчанию представлена погода в Провиденсе за последние 1-2 суток. Обновление информации о фактической погоде в базе происходит ежечасно! Архивные данные за месяц целиком и за предыдущие месяцы Вы можете получить, выбрав интересующий диапазон дат из раскрывающегося списка и нажав кнопку "Ввод!".

Внимание! Архив погоды МЕТАР в базе сайта в настоящее время начинается c 1 января 2011 г. Нет смысла пытаться выбрать более раннюю дату.

Внимание! Время в таблицах - всемирное. Для получения местного времени необходимо прибавить поправку, которая в Провиденсе равна -5 ч.

Ветер - указаны скорость ветра в м/с и направление, откуда дует ветер: С - северный, СВ - северо-восточный, В - восточный, ЮВ - юго-восточный, Ю - южный, ЮЗ - юго-западный, З - западный, СЗ - северо-западный.
Видимость - горизонтальная дальность видимости в метрах или километрах. При видимости от 1 до 10 км при отсутствии осадков обычно наблюдается дымка, при ухудшении видимости до 1 км и менее - туман. В сухую погоду видимость может ухудшаться дымом, пылью или мглою.
Атмосферные явления - указаны явления, наблюдавшиеся в указанный момент времени.
Облачность - указаны через наклонную черту верхняя и нижняя облачность в баллах и высота нижней границы облаков в метрах. Внимание: облачность, как и прочие метеорологические величины в США измеряются автоматическими метеостанциями. Указанные значения в баллах носят условный характер и показывают процент времени, в течение которого, в среднем, лазерный луч высотомера отражался от облаков обратно.
T - Температура воздуха - температура, измеренная на высоте 2 м над землей.
Td - Температура точки росы - температура, при понижении до которой содержащийся в воздухе водяной пар достигнет насыщения.
f - Относительная влажность воздуха - влажноcть воздуха, измеренная на высоте 2 м над землей.
Te - Эффективная температура - температура, которую ощущает одетый по сезону человек в тени. Характеристика душности погоды. При расчете учитывается влияние влажности воздуха и скорости ветра на теплоощущения человека.
Tes - Эффективная температура на солнце - температура, которую ощущает человек, с поправкой на солнечный нагрев. Характеристика знойности погоды. Зависит от высоты солнца над горизонтом, облачности и скорости ветра. Ночью, в пасмурную погоду, а также при ветре 12 м/с и более поправка равна нулю.
P - Атмосферное давление - приведенное к уровню моря атмосферное давление.
Po - Атмосферное давление - измеренное на уровне метеостанции атмосферное давление.
Tmin - Минимальная температура - минимум температуры воздуха на высоте 2 м над землей.
Tmax - Максимальная температура - максимум температуры воздуха на высоте 2 м над землей.
R - Количество осадков - Количество выпавших осадков за 3 или 6 часов, мм.
SD - Снежный покров - Высота снежного покрова, см.